GFSGBSN_925_thetae_021.txt.gz
Theta_e
309 309 312 312 311 311 311 310 309 310 311 312 312 312 310 310 310 310 310 311 312 312 313 314 317 318 316 315 316 316 317 317 318 317 315 314 316 316 316 315 315 316 314 313 313 312 313
309 311 313 312 311 311 311 309 310 311 312 312 312 311 310 310 310 310 311 312 313 313 314 315 317 318 315 317 316 314 317 316 317 318 315 315 315 315 317 315 318 315 315 314 313 314 312
310 312 313 312 311 312 310 310 310 312 312 312 312 311 310 310 310 311 313 313 313 314 315 317 318 318 315 316 316 314 314 315 317 317 315 315 314 316 317 318 315 314 315 314 314 313 313
311 313 313 312 312 312 311 311 311 312 313 313 312 312 312 312 313 313 314 314 315 315 315 318 319 317 316 316 315 315 313 314 316 317 317 316 315 314 315 314 312 313 313 316 313 315 314
312 313 313 312 312 312 311 311 312 313 313 314 314 314 315 315 315 315 315 315 315 316 318 317 318 316 316 316 315 315 313 314 315 316 316 316 313 312 312 313 313 313 314 314 316 313 316
312 314 313 312 312 312 312 312 312 313 314 314 315 315 315 316 316 315 315 315 316 316 317 314 314 314 313 313 314 314 313 314 313 314 316 315 312 314 313 314 314 316 315 315 316 315 316
311 314 313 312 312 313 312 313 312 312 314 316 316 316 316 319 318 317 318 320 313 314 315 312 312 312 312 313 314 313 312 313 312 313 317 313 316 315 313 313 313 313 314 316 314 313 317
311 314 314 312 312 313 313 313 313 312 313 314 315 315 319 320 322 321 321 319 316 317 314 312 312 312 313 313 313 313 313 314 314 315 313 315 315 312 312 312 313 314 315 314 314 313 317
310 313 314 313 313 313 313 313 313 313 313 314 315 315 318 320 320 321 322 323 323 322 313 314 313 313 313 313 313 313 311 312 312 314 313 316 313 312 312 314 317 316 315 315 316 315 315
308 311 314 314 313 313 313 313 314 314 312 313 314 315 315 319 319 318 319 321 323 320 315 315 315 314 313 312 314 313 313 312 314 313 313 314 311 313 315 315 314 318 313 316 316 318 321
306 308 312 314 313 313 313 313 313 315 312 312 314 315 316 317 319 318 318 319 325 316 317 315 315 314 312 313 313 316 313 314 315 314 315 314 312 315 318 314 313 318 315 316 317 319 319
306 307 309 313 313 313 313 314 313 314 314 313 314 317 320 320 320 320 317 322 322 316 317 316 314 315 315 314 314 314 314 313 313 316 316 315 312 313 314 313 315 315 317 315 316 318 323
306 307 308 311 313 313 314 314 313 313 318 316 315 316 318 319 318 318 320 318 320 319 317 316 315 315 314 315 316 315 315 316 317 315 320 317 317 316 314 318 317 318 317 321 325 326 325
307 307 308 309 312 313 314 314 315 314 319 317 318 318 319 319 318 321 319 319 319 317 317 315 314 315 316 314 316 316 316 318 316 316 319 320 318 318 316 317 317 318 318 323 319 324 323
307 307 307 308 311 313 314 314 315 314 319 318 316 316 317 319 322 321 317 320 317 317 315 316 316 317 317 318 316 316 317 317 316 316 319 321 318 316 317 316 316 319 322 316 319 315 322
308 307 307 308 310 312 313 314 315 316 319 322 317 317 319 320 324 315 316 316 315 314 315 316 318 317 318 320 318 317 317 316 316 315 314 318 322 316 316 315 315 317 315 321 320 324 322
308 308 306 307 309 312 313 314 314 317 319 322 320 317 319 323 315 313 317 313 313 315 316 318 318 320 319 320 318 318 318 316 315 316 314 315 318 316 314 318 318 319 319 317 318 319 325
308 308 307 306 308 311 313 314 314 316 319 323 310 321 319 322 316 308 314 313 314 317 316 317 317 318 319 318 320 320 320 317 313 315 318 315 315 318 316 314 314 315 316 315 319 318 319
309 308 307 306 307 311 312 314 314 316 319 320 316 317 316 316 316 311 315 317 316 317 316 317 318 317 316 318 319 319 318 315 314 316 317 315 315 314 310 314 313 318 316 314 313 313 319
309 309 307 306 307 311 313 314 314 317 320 316 312 318 315 311 310 315 316 317 319 315 315 315 316 316 316 317 317 319 319 317 315 315 313 314 314 313 313 311 312 316 316 314 317 320 317
309 309 308 307 308 311 313 314 314 317 318 315 309 314 312 314 316 314 315 316 318 318 315 315 317 316 317 316 318 319 318 316 314 314 314 315 318 315 314 314 314 315 316 316 317 317 319
309 309 309 308 309 312 313 314 315 317 319 315 314 315 309 310 313 314 312 317 318 317 316 318 318 316 315 316 315 318 318 316 316 315 315 312 316 314 315 313 312 314 314 314 315 316 316
309 309 310 309 310 313 314 314 317 318 319 315 313 310 313 306 307 312 312 316 317 316 315 315 315 315 313 316 315 314 313 313 314 315 314 314 314 313 315 310 311 313 310 313 314 313 315
310 310 310 310 311 313 314 314 318 318 318 318 314 308 307 310 306 311 316 315 315 315 316 314 312 313 312 310 309 308 305 306 309 311 311 309 310 310 316 310 318 313 310 312 313 312 311
310 311 311 312 313 314 314 314 317 318 319 317 313 309 306 306 307 314 314 314 313 312 314 315 315 310 308 309 311 310 310 305 306 308 310 309 309 313 315 315 314 314 312 311 313 313 310
310 311 312 312 313 314 314 314 314 318 318 316 314 311 306 306 311 313 314 312 311 310 312 314 311 308 306 305 309 313 313 309 313 310 306 306 304 313 313 317 318 313 308 312 311 314 309
310 311 312 312 313 314 314 314 314 317 318 317 316 316 310 307 307 311 313 314 309 309 310 307 313 310 306 307 311 313 316 308 314 308 304 308 309 314 314 313 314 310 308 307 314 315 311
311 311 312 313 313 314 314 314 315 314 317 317 316 315 313 305 309 312 312 311 311 310 313 310 312 308 307 310 313 310 309 310 311 309 308 310 310 309 308 312 314 306 309 312 312 309 310
311 311 312 313 314 314 314 314 315 315 315 316 317 316 316 311 310 314 316 315 313 311 310 307 311 309 309 308 306 304 308 302 306 316 306 313 311 313 311 313 308 306 309 309 308 308 307

GFSGBSN_925_thetae_024.txt.gz
Theta_e
312 309 312 313 312 312 312 311 310 309 310 311 312 312 311 310 310 310 310 310 311 312 312 314 316 317 317 320 319 316 317 317 318 318 319 320 319 319 318 318 319 319 319 319 317 316 318
309 311 312 313 312 312 312 310 310 310 311 312 312 312 311 310 310 310 310 311 312 313 314 315 318 316 320 319 316 315 317 316 319 319 319 320 320 319 320 320 320 319 319 319 318 318 317
309 312 313 312 312 313 311 310 311 311 312 312 312 311 310 310 310 310 311 312 313 314 315 316 318 317 319 318 316 315 315 316 317 319 320 318 319 320 322 322 320 319 320 320 319 319 320
310 312 313 312 312 312 311 311 311 312 313 312 311 310 310 310 311 312 313 313 314 315 315 318 318 317 318 316 316 315 315 316 317 318 319 317 318 319 321 318 318 319 320 319 319 320 319
310 313 313 312 312 312 311 311 311 313 313 313 312 312 312 312 313 313 314 315 315 316 317 317 320 320 318 316 316 315 314 317 318 318 317 316 318 319 318 320 319 318 316 317 318 318 320
310 313 313 312 313 313 312 312 311 313 314 314 314 314 315 315 315 315 315 315 315 316 315 314 315 318 316 316 315 314 314 315 319 319 320 320 319 320 319 317 316 317 317 318 318 318 319
310 313 313 312 313 313 312 313 312 312 314 315 315 315 315 315 315 315 315 319 319 319 317 317 316 316 316 315 315 316 314 316 318 320 320 319 320 320 319 318 318 317 318 318 317 318 320
310 313 314 313 313 313 312 313 313 312 314 315 315 316 319 322 319 318 321 321 321 319 317 315 315 316 314 315 318 318 317 318 319 319 319 319 320 317 317 317 317 318 319 319 319 318 320
309 312 314 313 313 313 313 313 314 313 313 314 314 318 318 320 320 322 326 325 322 319 318 317 316 317 316 317 318 318 317 317 318 318 319 319 317 315 317 320 320 320 320 320 320 320 320
308 311 313 313 313 313 313 313 314 313 312 313 314 314 315 320 321 319 323 321 322 318 318 317 317 317 317 316 318 317 316 316 317 318 318 317 316 318 320 320 320 321 318 321 321 322 322
307 309 312 313 313 313 313 313 314 314 312 313 314 315 316 317 319 321 321 320 324 321 322 318 318 316 317 318 317 318 316 318 318 317 319 316 318 320 320 319 319 322 320 321 321 323 322
306 307 309 313 313 314 314 314 313 315 313 314 314 319 319 320 320 319 318 323 325 325 320 319 318 318 319 319 318 318 319 318 317 320 319 318 317 319 320 318 318 320 321 321 322 324 327
306 307 308 311 313 314 314 315 313 315 316 315 314 317 318 318 324 318 319 326 323 322 320 319 319 319 319 320 320 319 320 321 321 321 321 319 320 319 319 321 321 322 323 324 328 328 326
307 307 308 310 312 313 314 315 313 317 317 318 317 318 318 318 318 320 323 326 321 321 321 317 318 319 320 319 320 320 321 321 320 320 321 321 323 320 320 320 321 322 323 326 325 324 324
307 307 307 309 311 313 314 314 314 317 318 318 318 318 320 321 321 319 324 327 324 321 319 319 319 320 321 320 320 321 321 321 320 320 322 323 321 320 319 319 320 323 325 321 324 322 326
307 307 307 308 310 312 314 314 316 316 319 318 319 321 322 321 322 321 327 321 320 318 319 319 321 321 322 322 322 321 321 319 320 319 319 321 323 320 318 319 320 321 319 326 324 334 322
308 307 306 307 309 312 313 314 315 318 320 321 319 321 321 323 317 324 327 321 318 317 319 321 322 322 323 322 322 322 321 319 319 319 319 317 321 319 317 320 322 322 323 322 322 324 326
308 308 307 306 308 311 313 314 315 319 320 324 320 323 319 320 324 320 322 319 316 320 320 321 322 322 323 323 323 323 323 321 318 319 319 319 320 318 316 317 318 319 320 319 322 322 322
309 308 307 306 307 311 313 314 316 319 319 321 325 325 317 320 330 326 320 320 320 321 320 321 322 322 321 323 324 322 321 318 318 320 320 319 319 316 316 318 319 320 319 318 317 319 320
309 308 308 306 307 311 312 314 316 319 319 318 324 333 323 320 318 322 322 322 322 319 320 320 320 320 322 323 322 323 322 320 319 319 313 317 319 315 314 313 314 314 315 316 318 322 319
308 309 308 307 308 311 313 313 316 319 317 316 321 325 321 329 323 322 322 321 322 321 320 320 321 321 322 324 322 323 322 320 318 315 319 320 319 318 317 316 316 316 317 316 317 318 320
309 308 309 308 309 312 313 314 316 318 317 318 324 325 319 320 320 322 320 322 321 320 320 321 322 320 319 320 317 321 319 319 318 319 320 319 321 318 319 316 316 317 316 316 316 317 317
309 309 309 308 310 312 313 314 317 317 317 321 316 313 324 313 320 324 322 321 320 321 319 320 321 321 322 319 318 319 319 319 318 318 320 320 321 320 325 315 316 321 316 315 316 316 316
310 309 309 309 311 313 313 314 318 318 317 319 317 316 326 324 321 322 320 320 321 320 322 318 319 320 317 316 316 316 314 315 317 317 317 317 318 316 322 319 325 316 314 314 315 315 314
310 309 310 310 311 313 314 314 318 318 318 316 311 316 321 318 320 319 320 320 319 319 320 320 318 315 316 318 322 320 318 317 315 313 315 316 317 318 320 318 316 315 314 314 314 315 314
310 310 311 311 312 314 314 314 316 317 316 314 311 310 316 314 323 317 320 320 322 323 322 319 315 313 316 320 322 323 321 315 315 315 311 312 313 321 314 320 319 315 313 313 313 316 314
310 311 311 311 313 314 314 314 315 317 317 316 315 313 317 323 315 317 322 321 319 321 323 320 319 318 316 315 317 320 324 314 317 319 317 313 314 317 317 319 317 314 312 311 317 318 313
310 311 312 312 313 314 314 314 314 316 317 316 315 314 317 318 317 317 316 318 317 320 325 319 321 319 315 319 320 317 318 319 316 315 315 318 319 317 315 316 318 311 312 316 315 314 313
310 311 311 312 313 314 314 314 315 314 316 316 319 315 314 319 318 315 317 315 317 316 319 318 320 319 321 320 314 313 318 311 320 320 313 316 315 316 315 317 314 313 312 312 314 314 311

GFSGBSN_925_thetae_027.txt.gz
Theta_e
312 311 311 312 313 312 312 312 312 311 310 310 311 312 312 311 310 310 310 310 311 311 312 312 315 317 318 325 319 318 317 318 320 320 320 320 320 319 318 318 318 317 317 317 317 317 319
310 310 312 313 313 312 312 312 310 310 311 311 312 312 312 311 310 310 310 310 311 312 312 315 317 317 323 321 318 318 317 318 320 320 319 319 320 319 318 319 320 320 320 320 320 320 319
309 311 312 313 312 312 312 311 310 311 312 312 312 312 311 310 310 310 310 311 312 312 314 315 317 320 323 319 317 317 317 318 319 321 320 320 320 320 320 321 321 320 320 321 321 321 322
309 311 313 313 312 313 312 311 311 312 312 312 312 311 310 310 310 310 311 312 313 314 315 318 318 323 322 317 318 317 317 318 319 320 320 320 320 322 322 322 320 320 321 322 321 321 321
310 311 313 313 312 313 312 312 311 312 313 312 312 311 310 310 311 312 313 313 315 315 315 318 321 326 319 316 317 316 317 319 320 321 320 318 321 321 322 322 321 320 321 319 321 320 321
310 312 314 313 313 313 312 312 312 313 314 313 313 313 312 312 313 313 314 315 315 317 316 319 320 320 317 317 316 316 317 319 321 322 321 321 321 322 322 321 321 319 318 318 319 320 319
310 312 314 313 313 313 312 312 312 313 314 314 314 315 315 314 315 315 315 319 321 323 319 319 318 318 317 316 317 318 318 319 321 322 323 321 322 322 321 319 318 318 318 319 320 320 320
309 312 313 313 313 313 313 312 312 312 315 315 315 315 316 315 315 315 321 325 325 322 318 317 318 318 317 317 318 319 319 321 321 321 321 320 322 320 319 318 318 319 321 321 321 320 320
309 311 313 313 313 313 313 313 313 312 313 314 315 318 320 321 318 322 326 326 325 323 318 318 318 318 318 319 319 319 320 320 319 319 318 321 320 318 319 320 321 322 322 323 322 321 321
308 310 313 313 313 313 313 313 314 313 313 314 315 315 319 320 323 326 325 325 327 325 322 317 318 318 318 319 320 319 319 319 319 318 319 320 319 319 320 321 321 323 321 322 322 323 324
307 308 312 313 313 314 313 313 314 313 313 313 314 315 317 319 323 322 325 326 329 329 324 319 319 318 318 320 320 320 319 319 319 319 320 320 319 321 322 322 321 323 322 322 323 324 323
307 307 310 313 313 314 314 313 314 313 313 314 317 318 318 320 327 325 325 328 331 331 324 320 319 320 321 321 321 321 320 320 321 319 320 320 320 321 322 321 321 321 324 324 324 325 327
307 307 308 312 313 314 314 314 313 314 313 314 316 320 322 324 324 325 327 328 322 328 320 320 321 320 321 321 321 322 322 323 324 324 324 321 322 321 322 323 323 323 325 328 329 329 329
307 307 308 310 312 314 314 314 313 316 315 315 316 318 320 326 325 323 326 324 326 324 321 320 320 321 322 322 322 322 323 323 322 322 322 324 327 322 321 322 322 324 324 329 327 327 326
307 307 308 309 312 313 314 315 315 318 317 317 318 325 325 326 325 325 324 326 323 320 321 320 320 322 322 321 322 323 323 322 321 322 325 324 324 321 320 321 322 325 327 323 325 328 326
307 307 307 308 311 313 314 315 316 318 317 318 320 321 323 321 320 326 326 323 323 321 320 320 322 323 323 323 323 324 323 321 322 320 321 321 326 321 319 320 322 321 322 327 326 331 324
308 307 307 307 310 312 314 315 317 318 317 318 320 321 326 323 322 322 326 324 321 320 321 322 322 322 324 324 323 323 323 321 321 320 320 319 321 322 318 321 319 322 323 323 322 323 326
308 308 307 306 309 312 313 315 319 319 320 322 323 324 325 324 322 322 326 322 317 321 322 323 323 323 324 324 324 324 324 324 320 320 321 319 320 320 317 318 319 320 321 321 323 322 323
308 308 307 306 308 311 313 315 319 319 323 325 324 325 324 326 329 325 323 322 322 322 322 323 324 324 324 324 325 324 324 321 320 321 323 320 322 321 319 321 321 321 320 319 319 320 319
308 308 307 306 308 311 313 315 319 319 320 323 325 332 325 326 325 323 324 323 323 322 322 323 323 323 324 324 324 325 324 322 321 321 313 318 320 319 320 318 317 317 317 316 317 322 322
309 308 308 307 308 311 312 314 317 319 317 321 324 328 326 328 326 325 324 324 324 323 322 322 323 323 324 325 324 324 323 323 321 316 319 321 322 319 319 317 316 316 317 317 317 317 321
308 308 308 307 309 311 313 315 317 319 316 323 323 327 325 327 325 325 321 324 323 322 322 322 323 323 322 324 320 323 321 320 320 320 320 320 323 321 320 317 315 315 316 316 316 317 317
308 308 308 308 309 311 313 315 317 318 318 323 321 322 327 319 326 325 325 323 323 323 322 322 322 321 323 320 321 321 320 320 319 320 321 321 323 321 324 319 318 324 319 316 316 316 316
309 308 309 308 310 312 313 315 317 318 319 324 323 322 332 327 326 325 322 322 322 322 323 322 321 322 321 319 319 319 319 319 319 320 320 323 321 320 323 319 327 317 315 315 316 315 315
310 309 309 309 310 312 313 315 318 316 317 321 316 322 326 328 325 323 322 322 322 322 322 322 321 320 320 320 323 322 319 316 319 316 317 320 321 321 323 320 316 316 316 316 316 316 315
310 309 310 310 311 313 313 314 317 317 315 319 317 318 323 320 328 322 324 324 326 326 325 322 319 318 321 324 323 323 323 317 318 318 315 317 319 323 319 322 321 316 315 314 314 318 316
310 310 310 311 312 313 313 314 316 317 316 322 320 314 320 328 321 322 325 325 323 324 326 323 322 322 321 321 322 323 325 317 317 320 316 316 318 321 319 321 318 314 314 313 318 320 316
310 310 311 311 313 313 314 314 314 316 316 321 320 314 323 324 321 320 319 322 322 323 328 324 324 324 324 319 320 323 322 321 319 316 319 319 319 318 318 320 319 314 314 318 317 316 315
310 311 311 312 313 314 314 314 314 315 316 319 320 314 319 321 323 320 320 319 320 320 322 323 322 323 323 325 319 320 325 320 321 321 316 318 318 319 318 319 317 315 315 315 315 314 310

GFSGBSN_925_thetae_030.txt.gz
Theta_e
311 312 310 311 313 312 312 312 312 312 310 310 310 311 311 312 311 310 310 310 310 311 311 311 313 316 318 325 321 318 318 319 320 320 322 321 320 320 319 318 318 316 316 316 316 317 319
311 310 311 312 313 312 312 312 311 311 310 311 311 311 312 312 311 310 310 310 310 311 311 313 315 317 324 323 318 318 318 319 320 320 320 320 320 320 318 318 319 318 318 318 318 319 318
310 310 312 313 312 312 312 312 311 311 311 312 312 312 312 312 311 310 310 310 311 311 312 315 315 319 325 322 318 318 318 319 319 320 321 320 320 319 320 321 320 320 320 320 320 320 321
310 310 312 313 312 312 313 312 311 311 312 312 312 312 311 311 310 310 310 311 311 312 315 316 318 322 325 319 318 318 317 318 319 320 320 319 320 322 322 321 319 319 321 321 321 321 321
309 311 312 313 312 313 313 312 312 312 312 312 312 311 310 310 310 310 311 312 313 315 315 318 319 325 324 317 317 317 317 319 319 320 320 319 321 320 321 320 320 321 321 322 322 320 322
309 311 312 313 312 313 313 312 312 312 313 313 312 311 310 310 310 311 312 313 315 316 317 320 323 323 319 318 317 317 318 320 320 321 320 321 322 322 321 322 323 320 319 318 319 320 319
309 310 313 313 313 313 313 312 312 312 313 313 314 313 313 312 313 313 314 316 321 323 321 320 319 319 317 316 316 318 319 320 321 322 323 321 322 322 321 319 318 318 318 318 319 320 319
309 310 313 313 313 313 313 312 313 312 313 314 315 315 314 314 315 315 318 325 326 323 320 318 318 318 317 318 318 319 319 321 321 322 323 320 321 320 319 319 318 318 320 321 321 320 319
309 310 313 313 313 313 313 313 313 312 313 314 315 317 316 315 315 316 324 327 326 327 319 318 319 318 319 320 320 319 320 320 320 322 319 322 321 318 319 319 320 321 321 324 322 321 321
309 309 312 313 313 313 313 313 314 313 312 314 317 316 321 318 321 325 326 325 327 327 320 316 318 318 318 319 319 319 319 320 319 319 319 321 319 319 320 321 321 322 323 322 321 322 322
308 309 311 313 313 314 314 313 314 313 313 314 314 315 319 319 325 323 326 326 329 329 329 319 318 318 318 320 320 319 318 319 319 320 320 320 319 321 322 323 321 323 322 322 322 323 323
308 308 309 312 313 314 314 314 313 313 313 314 317 316 317 319 330 326 327 329 330 331 330 319 319 321 320 320 321 320 319 321 321 319 320 320 320 322 322 321 321 321 324 324 325 325 330
308 307 308 311 313 313 314 314 313 313 313 314 319 319 322 327 328 326 329 330 323 331 321 320 320 321 321 321 322 322 322 323 324 323 323 322 322 322 321 323 323 323 324 333 335 334 334
308 307 308 310 312 313 314 314 313 314 314 314 317 319 324 328 327 323 329 326 329 324 321 320 320 321 322 322 322 322 323 323 322 325 323 324 326 323 321 322 322 324 323 335 331 336 333
308 307 307 309 312 313 314 314 314 316 315 315 317 327 327 328 327 328 328 328 326 320 321 321 321 321 322 322 323 323 324 323 321 323 326 324 325 321 320 321 321 323 328 322 323 329 332
308 307 307 308 311 313 314 316 316 317 316 316 322 322 324 320 323 330 329 327 325 322 320 320 321 322 322 322 323 324 324 322 321 320 321 321 326 321 319 319 323 321 320 325 331 332 327
308 307 307 307 311 313 314 316 316 317 317 318 325 321 328 320 322 324 327 327 323 321 321 321 322 322 324 323 324 324 324 322 321 320 320 319 323 322 319 321 319 321 322 322 321 324 329
308 307 307 306 309 312 314 317 318 317 317 320 326 324 327 321 322 323 327 324 317 321 323 324 324 322 324 323 324 324 324 325 320 320 321 318 321 325 318 318 319 319 321 321 331 324 328
308 308 307 306 308 312 313 317 319 319 319 326 323 328 326 328 329 328 325 323 322 322 322 323 324 324 325 325 326 325 325 322 320 323 323 320 324 328 323 321 321 318 318 318 319 323 322
308 308 308 306 308 312 313 316 319 319 321 322 330 333 323 325 329 324 325 324 324 323 324 323 324 324 325 325 325 325 325 323 321 321 315 320 321 320 323 318 317 316 316 316 317 326 323
308 308 308 306 309 312 313 316 318 319 320 319 329 328 323 328 327 325 323 323 325 324 323 323 323 324 324 325 325 325 325 323 321 316 319 322 323 321 320 317 316 315 314 315 315 318 319
309 308 308 307 309 311 313 316 317 318 317 323 328 327 326 329 325 325 322 324 324 323 324 323 323 323 324 325 323 324 323 322 322 320 321 321 325 323 322 317 316 314 314 316 316 316 316
309 308 308 308 309 312 313 315 317 318 318 325 324 326 328 323 327 328 327 324 324 324 324 323 323 323 326 323 323 322 321 320 319 321 321 323 327 325 326 320 319 325 321 316 316 316 317
308 308 309 308 310 312 313 315 317 317 321 327 326 325 333 331 327 325 324 323 323 324 323 323 322 325 323 319 319 319 319 319 319 321 321 324 323 322 322 320 324 317 315 315 315 316 316
309 308 309 309 310 312 313 316 317 316 318 323 321 327 328 324 327 325 324 323 324 323 323 324 323 322 320 320 326 320 322 316 319 317 318 321 323 321 325 322 318 317 317 316 317 317 316
309 309 309 310 311 312 313 315 317 315 319 322 317 322 327 323 328 323 323 324 327 327 326 322 321 321 321 327 323 323 327 319 321 319 317 318 322 325 320 319 321 318 315 315 315 318 318
310 309 310 310 312 313 313 314 317 316 320 323 320 320 326 332 324 325 327 328 324 327 329 324 322 323 323 321 315 319 327 317 321 321 318 316 317 319 319 319 318 315 315 314 317 320 317
310 310 310 311 312 313 313 314 315 316 318 324 319 317 327 326 323 323 322 325 324 327 331 325 326 327 328 317 318 323 323 326 322 318 319 317 318 317 318 319 319 315 316 318 318 317 314
310 310 311 312 313 313 314 314 314 315 316 322 322 318 322 325 325 323 321 321 322 322 324 326 323 325 325 324 320 323 323 319 321 325 315 321 322 323 320 319 318 317 317 315 314 312 310

GFSGBSN_925_thetae_033.txt.gz
Theta_e
311 310 311 310 312 312 312 312 312 312 311 310 310 310 310 311 311 311 310 310 309 309 310 311 311 312 317 326 323 318 318 318 318 317 320 322 318 316 316 316 314 312 313 313 314 314 315
311 311 310 311 312 313 312 312 312 311 311 311 311 311 311 311 311 311 310 310 310 310 311 311 312 315 321 323 319 318 318 318 319 320 321 321 319 317 317 317 315 314 313 313 314 316 317
310 310 310 311 312 312 312 312 312 311 311 311 311 312 312 312 311 311 310 310 310 310 311 312 314 317 324 326 319 318 317 318 319 319 319 319 319 319 318 319 316 317 316 316 316 316 316
309 309 310 312 313 312 312 313 312 312 311 312 312 312 311 311 311 310 310 310 310 311 312 314 315 321 325 320 319 317 317 317 318 320 320 320 320 320 321 318 318 317 316 317 317 317 318
309 309 311 312 313 312 313 313 312 312 312 312 312 311 311 311 310 310 310 311 311 312 314 314 317 322 324 318 316 317 316 318 319 319 320 319 318 319 319 316 316 317 317 318 319 317 319
309 309 311 313 313 312 313 313 312 312 312 313 312 311 310 310 310 310 311 312 314 314 316 316 320 323 323 317 316 316 317 319 319 320 319 319 318 318 316 316 319 317 317 320 317 317 317
309 309 311 313 313 313 313 312 312 312 312 313 313 311 311 310 310 311 312 314 318 321 321 320 319 322 316 315 315 316 318 319 320 320 320 319 318 319 317 317 317 317 317 316 317 317 317
309 309 311 313 313 313 313 313 312 312 313 314 314 313 313 313 313 313 316 324 325 324 321 321 318 318 317 317 317 318 319 319 320 320 320 319 319 317 318 317 318 317 319 321 317 318 316
309 310 311 313 313 313 313 313 313 313 313 314 314 314 314 314 314 314 316 325 326 325 318 318 318 317 318 318 319 317 319 319 319 320 320 319 318 317 318 320 320 321 321 320 320 319 319
309 310 311 313 313 313 313 313 313 313 312 313 316 316 316 315 316 316 322 325 326 328 317 317 317 317 318 318 318 318 318 319 319 319 318 318 318 319 319 321 319 323 322 321 321 319 320
309 309 310 312 313 313 313 313 313 313 312 314 314 317 320 318 321 328 325 326 324 328 321 317 319 316 317 319 317 318 318 319 319 319 319 319 318 321 323 321 320 322 320 321 321 321 321
308 309 309 311 313 313 313 314 313 313 313 314 317 316 319 319 324 326 325 325 327 328 322 320 318 319 317 320 320 317 318 319 320 318 317 318 319 320 320 320 320 321 321 322 322 322 323
308 308 308 310 312 313 314 314 313 313 313 314 318 317 321 328 329 326 324 328 321 331 321 318 319 320 321 321 320 320 319 321 322 321 320 320 321 320 320 321 321 321 321 326 326 326 326
308 307 307 309 312 313 314 314 313 313 314 314 319 319 327 328 326 324 328 325 328 323 320 318 320 321 322 321 321 322 321 321 320 324 323 324 324 320 320 320 321 322 322 322 329 327 327
308 307 307 309 311 313 314 314 312 314 314 314 317 322 328 322 320 321 325 329 328 323 321 320 320 322 321 322 322 323 321 321 319 319 324 326 323 319 319 318 319 319 323 320 321 323 323
308 307 307 308 311 313 313 315 314 315 315 315 323 323 328 322 318 328 326 328 324 321 320 320 321 321 322 321 322 323 323 322 320 319 319 320 324 320 318 318 322 321 318 320 323 324 326
308 307 307 307 310 312 313 316 315 317 316 317 324 320 328 325 318 322 324 327 322 320 323 324 322 321 324 321 322 324 324 321 321 319 317 318 321 320 317 317 318 319 321 320 320 319 321
308 307 307 307 309 312 313 317 317 317 317 318 327 321 327 323 319 320 321 324 317 321 322 323 324 322 324 322 324 324 325 322 319 320 320 317 320 318 318 317 318 318 320 320 317 321 319
308 308 307 306 307 312 313 317 318 316 317 322 323 326 327 328 318 321 322 323 321 321 321 322 324 324 324 325 325 326 324 321 321 320 321 319 319 318 321 320 320 318 317 316 318 314 317
308 308 308 306 307 311 313 317 318 317 317 323 326 321 324 324 324 326 325 323 324 323 323 323 323 323 324 324 324 326 324 323 320 318 314 318 320 318 318 318 315 315 314 313 315 314 317
308 308 308 306 307 311 313 316 318 318 319 321 326 324 319 319 319 324 323 323 325 324 323 323 323 324 324 324 325 326 324 322 321 315 319 320 320 321 320 316 315 314 314 312 312 313 314
308 308 308 307 308 311 313 316 317 318 319 319 329 328 323 320 319 324 321 322 325 324 323 323 323 323 323 324 324 325 324 321 322 319 321 319 320 318 317 318 316 314 313 314 315 316 316
308 308 308 307 309 312 313 316 317 317 316 325 324 325 325 323 321 324 324 324 324 324 323 323 322 322 320 321 319 318 317 317 319 319 320 322 315 313 316 316 313 313 316 315 315 314 315
308 308 308 308 310 312 313 317 316 317 321 326 324 328 318 319 325 324 325 324 325 323 323 323 323 321 319 316 314 315 313 314 318 317 321 316 315 312 308 310 306 316 313 315 316 315 315
308 308 308 309 311 312 313 317 315 317 321 322 322 327 316 314 325 324 322 323 323 323 323 322 321 319 316 320 315 311 311 306 312 316 317 319 310 307 313 313 313 315 316 316 315 317 316
308 308 309 309 311 312 313 316 316 317 320 318 321 325 320 313 320 325 323 322 322 323 322 321 320 319 321 315 307 310 314 315 318 317 313 318 311 307 303 305 308 313 314 313 313 312 315
309 308 309 310 312 313 313 315 316 320 323 320 316 323 327 321 321 323 323 322 323 322 318 320 321 321 315 311 312 309 312 317 318 315 310 308 312 307 304 304 310 314 314 313 312 311 312
309 309 310 311 312 313 313 314 316 317 323 321 316 324 324 318 321 322 322 324 325 323 317 320 315 314 310 311 306 310 314 313 315 317 312 309 308 312 312 311 310 314 315 312 311 312 310
310 309 310 311 313 313 313 313 314 315 320 322 316 321 322 321 321 321 319 321 321 322 320 319 316 321 317 312 311 310 314 312 312 313 315 315 313 311 311 310 310 314 313 311 310 308 308

GFSGBSN_925_thetae_036.txt.gz
Theta_e
313 312 311 310 311 311 312 312 311 312 312 311 311 310 310 311 311 311 311 310 310 309 309 310 310 311 316 324 320 319 316 316 316 316 317 320 320 316 314 314 311 311 312 312 313 313 311
313 311 310 310 310 312 312 312 312 312 312 311 311 311 311 311 311 311 311 310 310 309 309 310 311 313 319 321 318 318 317 317 317 317 319 319 320 317 316 314 312 312 312 312 314 315 315
313 311 309 309 311 312 312 312 312 312 312 311 311 311 311 311 311 311 311 310 309 310 310 310 312 315 322 322 319 319 317 317 317 318 318 318 317 318 317 315 313 312 313 314 315 316 315
312 310 309 309 311 312 312 312 312 312 312 311 312 311 311 311 311 311 310 310 310 310 310 312 314 319 320 315 318 319 317 317 318 319 320 319 318 318 317 316 316 316 314 316 316 315 317
312 310 309 310 311 312 312 312 313 312 312 312 312 311 311 311 311 310 310 310 310 311 312 314 316 321 316 319 316 317 316 317 319 319 319 318 318 317 315 314 314 314 314 316 318 315 317
312 309 309 310 312 313 312 313 312 312 311 312 312 311 310 310 310 310 310 310 312 314 316 315 318 321 320 322 316 316 317 318 319 318 317 317 314 315 313 313 316 316 314 317 317 316 315
312 309 309 310 312 313 312 313 312 312 312 313 312 311 310 310 310 310 311 313 315 318 319 315 318 321 317 317 315 316 317 318 319 319 319 318 316 317 314 314 315 315 315 316 316 316 316
311 309 309 310 312 313 313 313 312 312 312 313 313 312 311 310 311 311 316 320 321 322 318 318 320 318 319 315 316 316 318 318 318 319 319 316 317 316 316 317 318 317 318 318 317 317 314
310 309 309 310 312 313 313 313 313 313 312 313 314 314 313 313 313 313 315 322 324 327 324 316 318 316 317 318 317 317 318 318 319 318 319 317 317 316 319 318 321 321 319 320 319 318 317
310 309 309 311 312 313 313 313 313 313 312 313 315 315 314 314 314 318 316 323 326 327 314 317 317 316 318 317 317 317 317 318 319 317 315 316 317 318 320 319 319 323 320 320 319 317 317
309 309 309 311 312 313 313 313 313 313 312 314 314 316 315 315 320 325 326 326 326 325 315 315 317 316 316 319 317 317 317 318 318 317 316 318 319 320 320 320 319 321 319 319 320 319 319
309 309 309 310 312 312 313 313 313 313 313 314 315 317 319 317 322 327 325 323 325 325 318 317 317 317 316 318 317 316 317 317 318 317 316 318 318 318 319 319 319 320 321 321 320 320 321
309 309 309 309 311 312 313 313 313 313 313 315 316 317 319 325 328 325 320 320 316 326 319 318 317 316 318 319 319 318 319 319 321 319 319 319 320 319 319 320 318 319 320 322 325 324 324
309 308 308 309 311 312 313 314 313 313 313 316 318 320 328 329 326 322 325 318 326 323 320 317 319 319 320 320 320 320 319 320 317 323 319 321 323 318 318 319 320 320 321 320 327 324 321
309 308 307 308 310 312 313 314 313 313 314 315 318 323 325 321 319 319 319 326 324 323 319 319 319 321 321 321 320 320 319 319 318 318 322 323 321 319 317 317 318 318 321 318 319 319 319
308 308 307 308 310 312 313 314 312 314 314 315 321 325 326 321 319 323 322 325 324 320 320 319 320 320 320 320 321 321 321 320 319 317 317 320 322 319 318 317 318 318 316 320 318 321 325
308 307 307 307 309 312 313 315 313 314 315 317 324 316 325 323 320 315 320 323 322 320 322 321 322 320 320 320 320 322 322 321 319 319 315 318 319 319 318 316 317 317 319 318 317 317 320
308 307 307 307 308 312 313 316 315 316 316 318 320 318 327 325 311 316 317 321 319 320 321 322 322 324 321 320 323 324 323 321 319 320 317 317 316 315 318 316 317 317 319 318 315 318 317
308 307 307 306 307 312 313 317 317 317 316 320 318 323 327 327 309 316 317 322 321 320 320 321 322 323 322 323 325 325 322 320 317 318 320 316 316 315 318 318 317 317 317 316 316 311 316
308 307 307 306 307 312 313 317 318 316 318 324 321 319 318 320 316 317 320 322 323 321 322 322 322 322 322 323 323 324 323 321 317 315 314 317 317 315 318 317 314 314 313 311 313 312 314
308 307 307 306 307 312 313 317 318 316 317 320 321 319 314 313 316 323 321 321 323 323 322 321 321 322 322 323 324 324 322 321 319 315 318 317 318 319 317 315 314 314 313 311 311 310 311
308 308 308 306 308 312 314 316 318 317 318 320 324 323 317 314 314 319 320 321 323 323 322 322 322 322 321 322 321 323 321 320 320 317 319 317 318 315 314 316 314 313 311 314 313 314 314
308 308 308 306 310 312 314 316 317 318 319 319 324 324 318 319 314 320 320 319 323 322 322 322 321 318 317 319 316 315 315 317 318 317 319 318 312 309 308 312 310 310 314 314 314 314 314
308 308 308 307 311 312 315 316 317 316 317 326 324 321 315 317 318 319 323 322 323 321 323 321 320 317 318 315 312 309 309 313 315 316 316 313 311 305 305 304 301 311 312 313 316 316 315
308 308 308 308 311 312 316 316 316 318 320 323 324 321 313 310 321 322 322 322 321 320 321 322 321 316 314 314 308 308 308 306 311 315 316 314 306 308 302 309 307 313 315 314 313 315 315
308 308 308 310 312 312 315 316 317 319 321 320 324 325 313 312 319 323 320 320 319 319 318 320 318 318 312 308 304 309 311 307 317 317 312 312 305 304 308 301 303 308 313 312 311 312 314
308 308 309 310 312 312 314 316 318 322 320 317 322 325 321 316 317 321 319 320 318 317 314 319 320 318 309 301 300 304 313 313 316 313 308 310 302 306 299 300 307 308 312 311 311 311 311
308 308 309 311 312 313 313 315 316 321 319 318 322 324 322 313 320 319 319 321 320 316 315 316 313 310 308 306 300 303 309 309 312 314 311 310 308 305 303 301 310 310 313 312 309 310 309
308 309 310 311 312 313 313 314 315 319 320 317 321 322 322 316 319 319 318 319 321 320 317 314 312 315 311 308 304 310 311 312 308 312 312 313 309 309 310 310 307 311 311 311 309 307 307

GFSGBSN_925_thetae_042.txt.gz
Theta_e
315 314 312 313 313 312 310 309 310 311 311 311 311 312 311 311 311 310 310 310 310 310 309 308 309 310 314 320 317 316 317 317 317 317 314 316 317 317 315 312 310 310 311 311 310 313 311
316 314 312 312 313 312 310 309 310 311 311 311 312 312 311 311 311 311 311 311 310 310 309 309 309 311 317 317 315 318 317 316 315 315 314 315 317 317 315 312 311 311 310 311 310 309 309
316 315 313 312 313 312 309 309 310 311 311 311 312 312 311 311 311 311 311 311 310 309 309 309 310 314 319 317 316 316 317 316 316 316 314 316 317 316 314 313 310 311 312 312 312 312 313
317 315 313 312 312 311 309 309 311 312 311 312 312 311 311 311 311 311 311 310 310 309 309 310 312 317 319 315 315 318 319 317 315 315 317 317 317 315 313 311 312 313 311 311 313 314 313
318 315 314 312 311 311 309 309 311 312 311 312 312 311 311 311 311 311 310 310 309 309 309 312 315 319 317 315 318 317 315 315 317 316 316 315 314 313 312 311 311 311 314 315 316 314 315
318 316 314 312 311 311 309 309 311 312 312 312 312 311 311 311 310 310 310 309 309 310 312 314 316 317 315 316 318 315 315 316 317 316 314 314 311 312 310 310 313 313 314 315 316 315 314
317 316 315 313 311 311 308 309 311 312 312 312 312 311 311 310 310 310 309 311 312 314 316 314 315 314 317 317 314 314 315 317 315 314 317 314 314 314 313 313 313 314 313 314 314 313 312
317 317 315 313 311 311 308 310 312 312 312 312 312 312 311 310 309 309 310 312 313 317 319 315 316 317 317 317 316 314 317 317 316 317 316 315 315 314 316 314 314 314 314 315 315 313 312
317 317 315 313 312 310 308 310 312 312 312 312 312 312 311 309 309 310 313 316 323 321 322 319 316 315 314 316 315 315 316 316 316 317 315 315 315 315 317 317 318 318 316 317 316 314 312
318 317 316 314 312 310 309 310 312 312 312 312 312 312 311 310 311 312 312 316 325 322 312 314 316 315 315 315 315 315 315 316 315 316 314 315 316 316 316 317 317 320 318 317 316 313 315
319 318 316 314 311 309 309 310 312 312 312 312 311 312 312 311 316 318 319 326 327 318 314 313 315 314 314 315 314 315 315 315 315 315 314 317 318 317 317 318 317 320 316 317 316 316 316
319 318 316 314 311 309 309 310 312 312 312 312 312 313 312 312 316 320 326 324 319 318 321 315 314 314 316 316 315 314 316 314 313 315 314 317 316 316 318 316 317 316 318 317 317 317 320
318 318 316 313 311 308 310 311 312 312 312 312 312 313 313 314 324 326 324 312 315 318 317 316 315 314 316 317 316 316 317 316 315 317 318 317 317 315 316 319 316 316 317 320 323 321 322
316 318 316 313 310 309 310 311 312 312 312 312 313 313 314 318 328 326 320 311 315 317 319 314 314 315 317 317 318 317 317 317 316 314 316 319 319 317 315 317 318 319 317 319 326 324 320
311 318 316 312 309 309 310 311 312 312 312 312 315 315 321 322 327 324 311 313 314 320 317 316 316 318 319 318 318 317 317 316 316 316 319 319 319 316 315 317 316 318 317 314 318 315 317
306 318 315 311 309 309 310 311 312 313 312 314 316 318 323 324 324 318 312 313 318 320 318 316 317 318 319 319 319 318 320 318 316 314 315 318 320 316 315 315 314 315 314 319 314 316 318
304 316 314 310 309 309 310 311 313 313 312 317 320 315 322 325 319 310 313 314 321 319 318 317 317 318 317 318 319 320 319 318 317 318 315 316 314 315 316 314 316 316 316 314 315 314 316
307 315 312 309 308 309 310 312 313 312 314 317 312 315 325 322 310 310 316 318 318 318 318 320 319 318 317 319 321 320 320 319 317 318 316 315 312 315 315 314 314 315 316 312 309 314 313
313 314 311 309 308 309 311 312 313 312 315 319 316 321 323 314 311 314 314 317 319 318 319 320 321 320 319 321 322 320 320 318 313 316 315 313 313 314 315 313 314 317 314 312 309 308 314
315 313 309 308 308 309 311 313 313 313 315 319 315 320 316 313 308 313 314 317 320 319 320 319 319 319 320 322 319 320 321 318 313 313 313 313 313 313 315 313 312 312 311 313 311 310 312
312 310 308 307 307 309 312 315 313 314 316 321 313 316 315 317 318 313 313 316 320 321 319 317 319 320 320 322 322 321 320 319 315 314 315 311 315 315 313 312 312 311 310 309 310 309 310
311 309 307 307 307 311 313 316 314 315 317 318 320 315 309 309 317 317 315 319 319 321 320 320 319 320 319 319 318 320 318 316 311 315 316 312 314 312 315 312 310 312 310 308 308 308 308
309 307 307 306 308 312 315 316 315 315 319 316 317 317 312 311 314 316 317 318 319 319 320 318 318 316 318 318 316 314 313 312 313 315 315 312 309 309 310 307 304 305 308 308 310 309 309
307 307 306 306 311 312 315 317 316 315 319 320 321 316 313 310 310 316 318 318 319 319 320 318 316 315 314 308 308 307 308 312 313 312 311 309 306 300 301 301 301 306 306 308 310 311 310
307 307 305 310 312 314 316 317 316 315 317 324 323 316 310 306 310 317 318 319 317 317 319 319 317 313 308 306 308 311 306 309 309 310 308 307 303 304 301 304 304 307 312 311 311 310 311
307 306 309 311 314 315 315 317 316 315 317 320 322 321 312 312 315 318 318 317 316 316 317 318 314 309 305 302 303 307 311 312 314 316 310 306 302 304 299 300 300 305 310 310 309 311 309
307 308 311 313 315 315 316 316 316 316 316 320 323 322 315 315 316 317 317 317 313 313 312 316 316 316 306 299 298 302 306 307 312 311 308 307 301 303 294 297 304 303 309 308 312 309 309
308 311 312 313 314 315 317 318 317 317 318 321 322 322 317 313 316 317 317 316 314 313 314 313 312 309 303 305 302 301 301 307 310 310 312 310 310 308 301 298 309 304 310 311 308 307 308
310 312 312 313 314 315 317 319 320 320 319 319 320 318 318 314 315 315 315 315 317 312 312 309 314 311 308 304 296 298 302 308 305 309 308 310 307 307 307 308 305 305 308 308 306 307 307

GFSGBSN_925_thetae_045.txt.gz
Theta_e
317 317 316 314 313 312 312 312 310 308 309 311 311 311 311 311 311 311 310 310 310 310 310 309 308 309 313 318 318 315 317 316 316 315 315 314 317 317 318 316 312 313 312 311 313 316 313
318 317 317 315 313 312 312 312 310 308 310 311 311 311 312 311 311 311 311 310 310 310 309 309 309 310 316 316 314 316 317 316 316 316 314 315 317 318 316 313 312 311 311 310 312 316 313
319 317 317 316 314 312 312 312 310 308 310 311 311 311 312 311 311 311 311 311 310 310 309 309 309 313 318 318 315 317 315 317 316 315 315 314 316 317 316 312 310 312 313 313 312 312 313
319 318 317 317 315 313 311 312 310 308 310 311 311 312 311 311 311 311 311 310 310 309 309 309 311 316 319 314 315 315 317 316 314 315 315 316 316 317 314 312 313 314 314 315 314 313 312
321 319 317 317 315 313 311 311 309 308 310 311 311 312 311 311 311 310 310 310 310 309 309 312 314 318 319 315 316 316 314 314 315 314 315 314 315 314 313 315 316 314 315 316 316 314 314
321 319 317 317 316 314 312 310 309 308 310 311 311 312 311 311 310 310 310 309 309 310 311 314 315 317 314 315 317 315 314 315 316 315 315 315 315 316 314 315 317 317 316 315 317 315 315
316 321 318 317 317 315 312 310 309 308 311 311 312 312 311 311 310 310 309 310 313 314 315 315 314 315 315 316 315 313 314 316 315 317 318 316 318 318 315 313 313 314 314 316 315 313 317
314 319 320 317 317 315 313 311 309 308 311 311 312 312 311 311 309 309 309 311 313 315 321 315 316 316 316 316 316 313 315 316 317 318 316 317 317 314 315 313 315 315 316 317 316 313 316
309 315 320 318 317 316 313 311 309 309 311 312 312 311 311 310 309 309 310 313 320 319 324 317 317 316 314 315 315 314 315 315 316 317 316 319 316 315 317 318 320 318 318 318 318 315 315
307 309 318 319 317 316 313 311 309 309 311 312 312 311 312 310 309 310 310 312 314 319 315 314 315 315 314 314 315 313 314 316 315 317 314 318 316 316 317 319 318 321 317 316 316 316 320
305 305 313 320 317 316 313 311 309 309 311 312 312 311 312 309 312 312 315 317 326 316 317 313 314 314 313 315 314 314 315 314 316 315 315 318 317 317 319 317 316 320 317 318 317 319 318
304 304 308 317 318 316 314 311 308 310 311 312 312 311 312 311 312 316 323 324 318 320 323 314 314 314 316 315 314 313 317 314 313 317 317 317 315 316 318 316 316 317 320 320 319 321 325
304 303 304 316 319 317 314 311 308 310 312 312 312 311 312 312 316 323 324 314 318 321 316 315 314 314 316 316 316 316 317 319 318 321 321 319 318 316 316 320 318 319 321 323 324 326 324
305 305 303 313 318 317 313 310 309 311 312 312 312 311 313 312 315 326 317 313 318 316 319 313 313 315 317 316 317 317 318 320 317 316 319 321 320 317 315 318 320 320 320 328 326 328 325
302 304 305 309 317 316 313 309 309 311 311 312 311 312 313 313 313 316 312 315 317 315 318 315 315 318 318 318 318 318 317 317 316 316 321 321 320 315 314 317 317 320 321 317 321 317 322
302 303 304 309 317 316 313 309 309 311 312 311 313 314 316 319 322 315 314 314 313 318 317 314 315 317 319 319 319 319 319 317 316 314 316 319 322 315 314 315 315 317 316 323 319 322 318
300 304 304 305 316 316 312 309 310 311 312 313 317 319 319 324 320 312 315 314 318 320 318 316 317 318 317 319 319 320 319 318 316 316 315 316 319 317 316 316 319 319 319 317 318 317 317
300 302 303 305 312 316 311 309 310 311 312 315 312 316 322 320 313 310 314 314 318 318 316 319 316 317 318 319 321 320 321 319 316 317 318 315 316 319 317 314 314 315 317 317 319 317 316
301 303 305 304 310 315 310 309 310 311 312 316 312 320 319 311 314 313 313 316 318 317 318 319 321 318 319 321 322 320 320 316 314 315 318 315 316 319 318 315 315 317 316 312 311 314 318
302 304 304 304 310 313 309 309 310 312 313 318 318 322 318 311 308 314 315 315 318 318 319 318 319 319 321 321 320 321 321 317 313 314 313 314 314 317 321 316 315 315 314 313 315 318 315
303 304 303 304 312 311 309 309 310 312 315 316 313 318 317 319 315 312 313 316 319 321 318 317 320 319 321 322 321 321 320 317 314 315 315 315 317 315 314 313 312 311 311 314 314 313 318
303 304 304 308 312 309 308 309 311 312 315 316 316 314 309 312 316 313 313 318 319 319 320 319 321 319 319 321 320 322 319 316 313 316 316 313 318 313 316 312 311 313 311 310 310 309 311
306 304 307 311 309 308 308 310 312 312 315 316 316 312 312 309 315 313 314 317 319 320 319 317 319 318 319 318 316 314 313 313 314 317 316 313 315 315 316 308 306 313 312 312 311 310 311
305 309 311 310 308 307 308 311 314 313 317 319 319 314 312 309 314 314 316 317 318 318 321 317 315 317 314 311 310 311 312 313 313 311 311 310 308 305 311 305 310 310 308 309 311 311 310
309 310 309 308 307 307 310 313 315 314 317 322 321 315 310 307 310 314 317 319 317 317 319 319 317 312 309 308 314 315 313 313 312 310 308 307 308 308 314 309 307 308 307 312 313 312 311
309 309 307 307 306 310 312 314 315 314 317 322 322 315 310 310 312 314 318 316 317 317 317 317 312 308 306 305 310 315 319 316 315 316 310 307 305 313 306 310 309 308 308 311 311 316 310
308 307 306 306 310 312 314 315 315 315 318 322 321 317 316 316 316 315 318 318 313 314 315 314 314 314 307 306 309 314 315 308 314 313 313 314 309 314 303 313 310 306 308 309 314 314 310
307 306 307 311 313 314 315 316 316 315 317 321 321 319 318 315 316 316 316 314 313 314 318 315 315 313 308 312 313 309 312 312 312 311 315 315 315 313 304 311 316 305 310 315 314 308 309
306 310 313 314 314 315 315 316 315 315 316 321 318 317 318 315 315 314 314 314 315 312 314 310 316 313 313 310 304 304 310 309 309 316 309 315 313 314 311 314 309 306 310 308 307 308 309

GFSGBSN_925_thetae_048.txt.gz
Theta_e
320 319 318 316 317 315 314 312 312 312 310 308 310 311 311 311 312 311 311 311 310 310 310 310 309 308 315 320 318 316 317 316 315 315 317 319 318 317 316 316 318 318 316 323 325 325 324
323 320 319 317 316 317 314 312 311 312 310 308 310 311 311 311 311 311 311 311 310 310 310 309 308 309 319 319 315 317 317 316 317 316 317 318 318 318 320 319 318 318 316 322 318 325 320
320 323 319 319 317 317 315 313 311 312 310 308 310 311 311 312 311 311 311 311 310 310 310 309 309 314 318 318 316 319 317 317 318 317 319 318 318 320 321 315 313 314 315 314 316 322 323
316 321 323 319 318 317 316 314 311 311 310 308 310 311 311 312 311 311 310 310 310 310 309 309 310 317 320 316 317 317 317 318 317 317 317 317 317 319 319 315 316 316 317 319 317 322 317
311 315 321 322 319 317 317 315 312 310 310 308 310 311 311 312 311 311 310 310 310 309 309 311 316 319 320 316 317 317 317 316 316 317 316 316 318 319 316 317 317 316 317 318 317 317 318
308 310 316 321 320 318 317 315 313 311 310 308 310 311 312 311 311 310 310 310 309 309 310 315 316 322 320 318 317 317 315 316 319 318 317 318 319 319 317 317 318 318 316 317 317 318 318
304 306 311 318 321 319 317 316 314 311 310 308 310 311 312 311 311 310 310 313 317 319 317 319 317 319 317 317 316 315 315 318 320 320 318 320 321 318 318 317 318 319 318 317 318 318 320
304 309 308 310 320 321 317 317 314 312 310 308 311 311 312 311 311 309 310 315 317 320 322 318 317 317 316 317 318 317 317 318 318 318 321 321 320 318 318 318 318 318 319 320 319 317 321
305 305 309 313 317 320 319 317 315 312 310 308 311 312 312 311 310 310 313 313 320 317 327 320 319 317 317 318 318 317 318 319 318 319 321 320 319 319 319 320 320 321 321 321 320 319 321
305 304 305 307 313 318 320 317 316 312 310 309 311 312 311 311 310 313 313 312 314 315 324 317 317 317 316 318 318 316 317 319 320 320 320 321 319 320 321 321 322 322 320 320 320 321 321
305 304 306 306 308 317 319 317 316 313 310 309 311 312 311 310 315 313 317 315 318 321 318 316 317 316 317 318 317 317 317 318 319 320 319 321 320 321 321 321 320 322 320 321 321 322 322
304 303 303 304 305 312 317 318 316 313 310 309 311 312 311 311 312 316 320 324 323 327 320 317 317 317 318 318 317 318 320 318 319 321 321 321 320 321 321 320 321 322 323 324 324 324 324
303 303 303 304 304 307 316 319 316 313 309 309 311 312 311 314 314 325 320 323 326 323 318 317 317 317 317 318 318 318 320 320 320 323 323 322 322 320 320 323 322 323 323 322 323 323 321
303 303 302 304 304 304 314 317 316 313 309 310 311 311 312 313 316 321 322 325 323 317 318 317 317 317 317 319 319 320 321 321 320 321 322 322 323 320 319 322 322 323 322 321 317 321 322
302 303 302 305 305 303 314 316 317 312 309 310 311 312 314 314 314 319 324 326 320 319 320 318 318 318 319 319 319 321 322 321 321 321 320 322 322 319 319 321 321 324 323 322 325 324 326
301 301 301 303 304 303 312 315 317 312 309 310 313 314 315 318 313 317 325 322 319 321 318 318 317 318 319 320 319 319 321 321 321 319 322 323 323 320 319 319 320 323 321 323 323 324 319
301 300 300 301 303 303 309 314 316 311 309 311 315 318 322 319 320 325 326 322 318 322 321 318 317 319 319 321 320 319 321 321 320 320 321 322 323 321 319 320 321 322 323 321 321 321 317
300 299 299 300 303 302 309 313 315 310 309 312 317 320 323 322 325 325 324 319 317 321 321 320 320 319 319 321 322 320 321 321 320 320 323 321 323 325 322 318 318 320 321 322 320 320 322
298 299 299 300 304 303 308 312 314 309 310 314 319 324 320 315 329 325 320 318 320 320 322 322 322 321 322 323 324 324 324 320 319 320 323 320 323 325 322 320 320 320 321 319 318 321 321
299 300 300 300 303 303 305 311 312 309 311 316 320 327 325 321 320 322 321 319 319 321 322 322 323 324 325 325 324 326 325 320 317 319 312 316 322 323 325 321 321 321 320 318 318 319 316
298 300 301 301 304 303 304 310 312 309 311 316 322 321 322 328 322 320 320 318 319 324 322 322 324 324 324 326 325 326 324 319 319 316 320 321 323 320 318 317 317 318 318 319 318 317 319
299 301 301 302 304 302 303 311 311 309 311 314 322 322 319 325 320 318 317 319 318 323 323 323 324 324 325 326 324 326 324 322 323 320 322 319 323 320 320 317 316 317 316 316 319 318 317
300 301 301 303 304 303 304 309 310 309 311 318 321 316 322 317 320 318 319 318 319 324 322 321 325 325 326 324 323 323 320 320 320 323 323 322 322 321 320 314 314 321 318 317 316 317 317
300 301 302 303 302 302 304 309 309 309 312 319 322 318 326 322 319 318 317 319 321 324 325 321 322 325 319 317 318 319 319 318 318 317 317 319 320 318 321 312 328 314 312 313 317 317 316
301 302 302 304 303 303 306 311 308 309 312 319 321 320 321 322 319 317 318 321 323 322 324 323 320 318 317 318 323 323 324 324 320 315 315 314 317 318 330 315 314 312 310 311 313 313 314
301 302 304 303 302 307 310 308 308 311 313 314 322 315 320 321 319 317 320 322 325 326 324 319 314 313 313 319 325 330 329 325 323 322 314 313 314 321 318 334 333 313 312 314 314 316 314
303 303 305 306 306 309 309 308 310 312 313 316 320 315 321 325 318 320 321 323 323 324 326 318 316 317 314 323 329 334 328 316 321 322 320 321 319 326 321 331 318 312 313 313 316 315 315
306 307 306 309 308 307 307 310 313 314 313 318 318 317 324 324 321 321 319 321 320 324 327 320 320 320 320 328 327 324 329 318 317 316 319 322 325 323 318 327 326 311 314 319 317 315 314
308 309 309 307 306 307 310 313 314 314 314 319 319 317 318 322 320 316 315 316 318 318 322 319 324 321 323 325 322 319 321 314 322 325 315 320 319 321 319 319 314 312 316 315 313 314 314